Regional Weather Roundup
Issued by NWS Sterling, VA

Home | Current Version | Previous Version | Graphics & Text | Print | Product List | Glossary On
Versions: 1 2 3 4 5 6 7 8 9 10 11 12 13 14 15 16 17 18 19 20 21 22 23 24 25 26 27 28 29 30 31 32 33 34 35 36 37 38 39 40 41 42 43 44 45 46 47 48 49 50
480
ASUS41 KLWX 211311
RWRLWX

REGIONAL WEATHER ROUNDUP
NATIONAL WEATHER SERVICE BALTIMORE MD/WASHINGTON DC
900 AM EDT THU SEP 21 2017

Note: "FAIR" indicates few or no clouds below 12,000 feet
with no significant weather and/or obstructions to visibility.
 TC=TEMPERATURE CELSIUS

 * =Non NWS site. Station does not report precipitation (e.g. rain,
    snow, etc.), thunder, or fog.

DCZ001-MDZ009-015-VAZ040>042-051-053>054-211400-
WASHINGTON METRO

CITY           SKY/WX    TMP DP  RH WIND       PRES   REMARKS
WASHINGTON NAT MOSUNNY   74  64  71 N7        30.07S
DULLES         MOSUNNY   69  64  84 N5        30.08S
ANDREWS AFB    SUNNY     73  63  71 N7        30.06R
FT BELVOIR     SUNNY     74  62  66 NW5       30.06S
QUANTICO       MOSUNNY   73  66  78 NW3       30.07S
COLLEGE PARK*  SUNNY     69  62  80 CALM      30.06S
LEESBURG*      SUNNY     70  64  83 CALM      30.10R
MANASSAS*      SUNNY     72  64  76 N5        30.08S
GAITHERSBURG*  SUNNY     71  65  81 CALM      30.09R

$$

MDZ006>007-011-014-211400-
BALTIMORE METRO

CITY           SKY/WX    TMP DP  RH WIND       PRES   REMARKS
BWI AIRPORT    MOSUNNY   73  64  73 VRB3      30.06S
MD SCIENCE CTR   N/A     77  63  61 MISG      30.06S
MARTIN STATE   MOSUNNY   73  68  83 NW5       30.06F
ANNAPOLIS      SUNNY     75  68  78 NW3       30.05S
FORT MEADE*    SUNNY     64  63  94 CALM      30.08S

$$

MDZ012-015-019>023-211400-
MARYLAND EASTERN SHORE

CITY           SKY/WX    TMP DP  RH WIND       PRES   REMARKS
OCEAN CITY     SUNNY     75  69  81 N7        30.03R
SALISBURY      SUNNY     75  69  81 NW6       30.03R
CAMBRIDGE*     SUNNY     72  68  88 N6        30.04S
EASTON*        MOSUNNY   72  66  83 N3        30.08S

$$

MDZ017>025-211400-
SOUTHERN MARYLAND

CITY           SKY/WX    TMP DP  RH WIND       PRES   REMARKS
PATUXENT RIVER MOSUNNY   73  68  84 NW7       30.04S
ST INIGOES     SUNNY     75  69  81 N3        30.03S
LEONARDTOWN*   SUNNY     72  64  78 CALM      30.06S

$$

MDZ003>005-211400-
NORTH CENTRAL MARYLAND

CITY           SKY/WX    TMP DP  RH WIND       PRES   REMARKS
FREDERICK*     MOSUNNY   66  66 100 CALM      30.11S
HAGERSTOWN APT SUNNY     64  60  87 CALM      30.10S
WESTMINSTER*   PTSUNNY   70  64  83 CALM      30.09S

$$

MDZ501>502-211400-
WESTERN MARYLAND

CITY           SKY/WX    TMP DP  RH WIND       PRES   REMARKS
OAKLAND*       SUNNY     63  61  94 CALM      30.16F
CUMBERLAND*    SUNNY     63  59  88 CALM      30.16S

$$

VAZ025>031-211400-
SHENANDOAH VALLEY

CITY           SKY/WX    TMP DP  RH WIND       PRES   REMARKS
WINCHESTER*    SUNNY     64  61  88 CALM      30.10S
FRONT ROYAL*   SUNNY     64  63  94 CALM      30.10S
LURAY*         MOSUNNY   63  63 100 CALM      30.12S
NEW MARKET*    SUNNY     64  61  89 CALM      30.12S
STAUNTON*      MOSUNNY   62  61  97 CALM      30.15R
WAYNESBORO*    MOSUNNY   65  64  99 CALM      30.14R

$$

WVZ021-048>050-054>055-211400-
EASTERN WEST VIRGINIA PANHANDLE

CITY           SKY/WX    TMP DP  RH WIND       PRES   REMARKS
MARTINSBURG    SUNNY     65  61  87 CALM      30.10S
PETERSBURG*    SUNNY     65  63  94 CALM      30.14R FOG

$$

VAZ036>039-050-211400-
CENTRAL FOOTHILLS

CITY           SKY/WX    TMP DP  RH WIND       PRES   REMARKS
CHARLOTTESVILL MOSUNNY   71  67  87 CALM      30.08R
CULPEPER*      SUNNY     68  63  83 CALM      30.09S
ORANGE*        SUNNY     70  61  73 CALM      30.09R
GORDONSVILLE*  SUNNY     70  67  88 CALM      30.08R
WARRENTON*     SUNNY     68  60  75 CALM      30.08R

$$

VAZ055>057-211400-
NORTH AND CENTRAL PIEDMONT

CITY           SKY/WX    TMP DP  RH WIND       PRES   REMARKS
FREDERICKSBRG* SUNNY     69  64  83 CALM      30.06S
STAFFORD*      SUNNY     72  67  83 N5        30.10S

$$

NCZ024-NYZ072-PAZ021-071-VAZ022-071-211400-
OTHER REGIONAL OBSERVATIONS

CITY           SKY/WX    TMP DP  RH WIND       PRES   REMARKS
NEW YORK CITY  CLOUDY    72  64  76 VRB6      30.04R
PHILADELPHIA   MOSUNNY   76  63  64 N9        30.04R
PITTSBURGH     SUNNY     67  64  90 CALM      30.13R
ROANOKE        MOSUNNY   70  65  84 CALM      30.14R
RICHMOND       MOSUNNY   73  64  73 N8        30.05S
RALEIGH        MOSUNNY   74  66  76 CALM      30.06S

$$

ANZ530>537-211400-
MARINE OBSERVATIONS

STATION/POSITION TIME  TEMP    WIND        PRES
                       AIR SEA DIR/SP/G
                 (UTC) (F)     (DEG/KT/KT) (MB)
THOMAS PT LIGHT  1300   72 75  360/  7/  7   N/A
BALT KEY BRIDGE  1248   74     360/  4/  4 1017.5F
COVE POINT       1248   73     360/ 10/ 12 1018.0R
LEWISETTA        1248   73 76  330/  5/  6 1017.1R
SOLOMONS ISLAND  1242   71 76  320/  5/  7 1016.8F
PINEY POINT      1248          330/  6/  7   N/A

$$





USA.gov is the U.S. government's official web portal to all federal, state and local government web resources and services.